Voltar ao catálogo

STARLINK-31652

AtivoComunicaçõesVLEO
NORAD 59256·PAYLOAD·🇺🇸 United States

Lançado Mar 19, 2024 de Vandenberg Space Force Base

Loading…

Próximas Passagens (próximas 24 horas)

TLE

AtualizadoSource: CelesTrak SupGP

Época: Sep 15, 2026, 02:50 UTC

1 59256C 24050C   26258.11854167  .00033762  00000+0  10859-2 0  2587
2 59256  53.1591  19.9659 0000970  83.4370  45.6694 15.31679647    17

Acompanhe STARLINK-31652 em tempo real com AllMySat

Download on the App Store